KD5NDU-15 Weather Reports


Display with metric or nautical units.
time (UTC)temp
F
wind
direction
speed
MPH
gust
MPH
rain 1hr
in
rain 24hr
in
rain mn
in
humidity
%
barometer
mb
20260831183140 92 190 0.0 2.0 0.00 0.00 0.00 64 1018.7
20260831182640 92 193 1.0 2.0 0.00 0.00 0.00 63 1018.7
20260831182140 92 193 1.0 2.0 0.00 0.00 0.00 64 1018.7
20260831181640 92 193 2.0 3.0 0.00 0.00 0.00 63 1018.8
20260831181140 93 207 2.0 5.0 0.00 0.00 0.00 63 1018.9
20260831180640 93 181 3.0 4.0 0.00 0.00 0.00 62 1019.0
20260831180140 93 182 4.0 7.0 0.00 0.00 0.00 62 1019.1
20260831175640 93 176 3.0 8.0 0.00 0.00 0.00 62 1019.1
20260831175140 93 192 2.0 7.0 0.00 0.00 0.00 63 1019.2
20260831174640 92 293 3.0 5.0 0.00 0.00 0.00 64 1019.4
20260831174140 92 262 4.0 6.0 0.00 0.00 0.00 66 1019.3
20260831173640 93 250 4.0 11.0 0.00 0.00 0.00 63 1019.4
20260831173140 94 236 3.0 8.0 0.00 0.00 0.00 62 1019.6
20260831172640 92 280 3.0 6.0 0.00 0.00 0.00 65 1019.5
20260831172140 92 194 2.0 6.0 0.00 0.00 0.00 64 1019.5
20260831171640 91 176 2.0 4.0 0.00 0.00 0.00 66 1019.6
20260831171140 91 152 2.0 4.0 0.00 0.00 0.00 66 1019.6
20260831170640 91 212 1.0 5.0 0.00 0.00 0.00 66 1019.8
20260831170140 90 245 1.0 2.0 0.00 0.00 0.00 67 1019.9
20260831165640 91 246 1.0 3.0 0.00 0.00 0.00 66 1020.0
20260831165140 90 248 0.0 3.0 0.00 0.00 0.00 67 1020.0
20260831164640 90 249 0.0 2.0 0.00 0.00 0.00 68 1020.0
20260831164140 90 249 1.0 2.0 0.00 0.00 0.00 70 1020.0
20260831163640 90 205 1.0 2.0 0.00 0.00 0.00 69 1020.1
20260831163140 90 206 2.0 4.0 0.00 0.00 0.00 70 1020.1
20260831162640 90 174 3.0 5.0 0.00 0.00 0.00 69 1020.1
20260831162140 90 234 3.0 6.0 0.00 0.00 0.00 69 1020.2
20260831161640 91 256 3.0 8.0 0.00 0.00 0.00 68 1020.1
20260831161140 91 186 4.0 7.0 0.00 0.00 0.00 67 1020.1
20260831160640 91 245 4.0 9.0 0.00 0.00 0.00 67 1020.2
20260831160140 91 168 4.0 9.0 0.00 0.00 0.00 66 1020.2
20260831155640 91 214 4.0 8.0 0.00 0.00 0.00 67 1020.2
20260831155140 91 226 3.0 8.0 0.00 0.00 0.00 69 1020.3
20260831154640 90 226 3.0 5.0 0.00 0.00 0.00 70 1020.2
20260831154140 91 251 3.0 6.0 0.00 0.00 0.00 69 1020.3
20260831153640 91 252 3.0 8.0 0.00 0.00 0.00 69 1020.3
20260831153140 91 226 2.0 5.0 0.00 0.00 0.00 68 1020.1
20260831152640 91 229 1.0 4.0 0.00 0.00 0.00 69 1020.2
20260831152140 90 262 2.0 5.0 0.00 0.00 0.00 70 1020.1
20260831151640 89 254 3.0 7.0 0.00 0.00 0.00 72 1020.1
20260831151140 89 214 2.0 6.0 0.00 0.00 0.00 71 1020.0
20260831150640 89 247 2.0 5.0 0.00 0.00 0.00 72 1020.1
20260831150140 89 202 2.0 4.0 0.00 0.00 0.00 74 1020.0
20260831145640 89 172 3.0 7.0 0.00 0.00 0.00 74 1020.1
20260831145140 89 200 2.0 6.0 0.00 0.00 0.00 73 1020.2
20260831144640 89 233 1.0 6.0 0.00 0.00 0.00 73 1020.0
20260831144140 88 278 1.0 2.0 0.00 0.00 0.00 75 1020.0
20260831143640 88 278 1.0 3.0 0.00 0.00 0.00 75 1019.8
20260831143140 87 288 1.0 2.0 0.00 0.00 0.00 77 1019.8
20260831142640 87 285 1.0 2.0 0.00 0.00 0.00 78 1019.8
20260831142140 86 259 1.0 3.0 0.00 0.00 0.00 78 1019.9
20260831141640 85 242 1.0 4.0 0.00 0.00 0.00 79 1019.9
20260831141140 85 219 2.0 4.0 0.00 0.00 0.00 81 1019.8
20260831140640 84 205 2.0 4.0 0.00 0.00 0.00 81 1019.9
20260831140140 84 207 1.0 4.0 0.00 0.00 0.00 81 1019.9
20260831135640 83 211 2.0 3.0 0.00 0.00 0.00 82 1019.8
20260831135140 83 208 2.0 4.0 0.00 0.00 0.00 81 1019.8
20260831134640 82 193 2.0 3.0 0.00 0.00 0.00 83 1019.9
20260831134140 82 199 2.0 3.0 0.00 0.00 0.00 83 1019.8
20260831133640 81 174 2.0 4.0 0.00 0.00 0.00 84 1019.7
20260831133140 81 188 2.0 4.0 0.00 0.00 0.00 85 1019.7
20260831132640 80 184 1.0 3.0 0.00 0.00 0.00 85 1019.8
20260831132140 80 184 1.0 2.0 0.00 0.00 0.00 86 1019.8
20260831131640 79 179 1.0 3.0 0.00 0.00 0.00 87 1019.6
20260831131140 78 148 0.0 3.0 0.00 0.00 0.00 88 1019.7
20260831130640 77 141 0.0 1.0 0.00 0.00 0.00 90 1019.6
20260831130140 77 141 0.0 2.0 0.00 0.00 0.00 90 1019.5
20260831125640 76 141 0.0 2.0 0.00 0.00 0.00 91 1019.5
20260831125140 75 141 1.0 2.0 0.00 0.00 0.00 92 1019.4
20260831124640 75 140 1.0 3.0 0.00 0.00 0.00 92 1019.3
20260831124140 75 130 1.0 2.0 0.00 0.00 0.00 93 1019.2
20260831123640 74 115 1.0 3.0 0.00 0.00 0.00 93 1019.1
20260831123140 74 154 1.0 5.0 0.00 0.00 0.00 93 1019.1
20260831122640 73 152 1.0 3.0 0.00 0.00 0.00 93 1018.9
20260831122140 73 181 2.0 4.0 0.00 0.00 0.00 94 1018.9
20260831121640 73 135 1.0 4.0 0.00 0.00 0.00 94 1018.8
20260831121140 72 150 1.0 3.0 0.00 0.00 0.00 94 1018.8
20260831120640 71 150 1.0 3.0 0.00 0.00 0.00 94 1018.8
20260831120140 72 149 0.0 2.0 0.00 0.00 0.00 94 1018.7
20260831115640 72 147 0.0 2.0 0.00 0.00 0.00 94 1018.7
20260831115140 72 148 0.0 2.0 0.00 0.00 0.00 94 1018.6
20260831114640 72 148 0.0 2.0 0.00 0.00 0.00 94 1018.6
20260831114140 72 153 0.0 2.0 0.00 0.00 0.00 94 1018.6
20260831113640 72 148 0.0 0.0 0.00 0.00 0.00 94 1018.6
20260831113140 72 148 0.0 0.0 0.00 0.00 0.00 94 1018.4
20260831112640 72 148 0.0 0.0 0.00 0.00 0.00 94 1018.4
20260831112140 71 148 0.0 0.0 0.00 0.00 0.00 94 1018.4
20260831111640 71 148 0.0 0.0 0.00 0.00 0.00 94 1018.3
20260831111140 71 148 0.0 0.0 0.00 0.00 0.00 94 1018.3
20260831110640 72 148 0.0 0.0 0.00 0.00 0.00 94 1018.3
20260831110140 72 148 0.0 0.0 0.00 0.00 0.00 94 1018.3
20260831105640 72 148 0.0 0.0 0.00 0.00 0.00 93 1018.2
20260831105140 72 148 0.0 0.0 0.00 0.00 0.00 94 1018.2
20260831104640 72 148 0.0 2.0 0.00 0.00 0.00 94 1018.3
20260831104140 72 148 1.0 3.0 0.00 0.00 0.00 94 1018.2
20260831103640 72 151 0.0 1.0 0.00 0.00 0.00 93 1018.2
20260831103141 72 138 0.0 0.0 0.00 0.00 0.00 93 1018.1
20260831102640 73 138 0.0 1.0 0.00 0.00 0.00 93 1018.1
20260831102140 73 138 0.0 2.0 0.00 0.00 0.00 94 1018.1
20260831101640 73 174 0.0 0.0 0.00 0.00 0.00 94 1018.2
20260831101140 73 174 0.0 2.0 0.00 0.00 0.00 94 1018.0
20260831100640 73 167 0.0 2.0 0.00 0.00 0.00 94 1018.0
20260831100140 73 167 0.0 2.0 0.00 0.00 0.00 93 1018.0
20260831095640 73 167 0.0 0.0 0.00 0.00 0.00 93 1017.9
20260831095140 73 167 0.0 1.0 0.00 0.00 0.00 94 1017.9
20260831094640 73 167 0.0 1.0 0.00 0.00 0.00 93 1017.8
20260831094140 73 167 0.0 0.0 0.00 0.00 0.00 93 1017.8
20260831093835 73 167 0.0 0.0 0.00 0.00 0.00 93 1017.8
20260831093640 73 167 0.0 0.0 0.00 0.00 0.00 93 1017.8
20260831093140 73 167 0.0 0.0 0.00 0.00 0.00 92 1017.6
20260831092640 74 167 0.0 0.0 0.00 0.00 0.00 92 1017.6
20260831092140 74 167 0.0 1.0 0.00 0.00 0.00 91 1017.6
20260831091640 74 167 1.0 3.0 0.00 0.00 0.00 92 1017.4
20260831091140 74 188 1.0 3.0 0.00 0.00 0.00 92 1017.3
20260831090640 74 179 0.0 3.0 0.00 0.00 0.00 92 1017.4
20260831090140 74 153 0.0 2.0 0.00 0.00 0.00 93 1017.4
20260831085640 74 154 0.0 0.0 0.00 0.00 0.00 93 1017.3
20260831085140 74 155 0.0 0.0 0.00 0.00 0.00 93 1017.3
20260831084640 73 158 0.0 0.0 0.00 0.00 0.00 93 1017.3
20260831084140 73 144 0.0 0.0 0.00 0.00 0.00 94 1017.3
20260831083641 73 142 0.0 0.0 0.00 0.00 0.00 94 1017.3
20260831083140 73 124 0.0 0.0 0.00 0.00 0.00 94 1017.3
20260831082640 73 122 0.0 0.0 0.00 0.00 0.00 93 1017.3
20260831082141 73 122 0.0 0.0 0.00 0.00 0.00 93 1017.2
20260831081641 73 122 0.0 0.0 0.00 0.00 0.00 93 1017.2
20260831081141 73 121 0.0 0.0 0.00 0.00 0.00 93 1017.2
20260831080641 73 125 0.0 0.0 0.00 0.00 0.00 92 1017.2
20260831080141 73 125 0.0 0.0 0.00 0.00 0.00 92 1017.2
20260831075640 73 126 0.0 0.0 0.00 0.00 0.00 91 1017.1
20260831075141 74 126 0.0 0.0 0.00 0.00 0.00 91 1017.3
20260831074641 74 127 0.0 0.0 0.00 0.00 0.00 90 1017.3
20260831074141 74 124 1.0 0.0 0.00 0.00 0.00 91 1017.4
20260831073641 74 125 1.0 3.0 0.00 0.00 0.00 91 1017.3
20260831073141 74 112 1.0 4.0 0.00 0.00 0.00 92 1017.4
20260831072641 74 198 0.0 1.0 0.00 0.00 0.00 92 1017.4
20260831072141 74 198 0.0 1.0 0.00 0.00 0.00 92 1017.4
20260831071641 74 198 0.0 0.0 0.00 0.00 0.00 91 1017.4
20260831071141 74 198 0.0 0.0 0.00 0.00 0.00 91 1017.5
20260831070641 74 198 0.0 0.0 0.00 0.00 0.00 91 1017.5
20260831070141 74 198 0.0 0.0 0.00 0.00 0.00 91 1017.6
20260831065641 74 198 0.0 0.0 0.00 0.00 0.00 91 1017.6
20260831065141 74 198 0.0 1.0 0.00 0.00 0.00 91 1017.7
20260831064641 74 198 0.0 2.0 0.00 0.00 0.00 91 1017.8
20260831064141 75 200 0.0 1.0 0.00 0.00 0.00 91 1017.7
20260831063641 75 200 0.0 1.0 0.00 0.00 0.00 90 1017.8
20260831063141 75 200 0.0 0.0 0.00 0.00 0.00 90 1017.7
20260831062641 75 200 0.0 0.0 0.00 0.00 0.00 89 1017.8
20260831062141 75 200 0.0 0.0 0.00 0.00 0.00 89 1017.8
20260831061641 76 200 0.0 1.0 0.00 0.00 0.00 88 1017.7
20260831061141 76 200 0.0 1.0 0.00 0.00 0.00 87 1017.7
20260831060641 76 200 0.0 1.0 0.00 0.00 0.00 87 1017.7
20260831060141 77 200 1.0 2.0 0.00 0.00 0.00 87 1017.7
20260831055641 77 200 1.0 2.0 0.00 0.00 0.00 87 1017.7
20260831055141 77 197 1.0 3.0 0.00 0.00 0.00 87 1017.7
20260831054641 77 198 1.0 2.0 0.00 0.00 0.00 87 1017.6
20260831054141 77 197 0.0 3.0 0.00 0.00 0.00 87 1017.8
20260831053641 77 200 0.0 0.0 0.00 0.00 0.00 87 1017.9
20260831053141 77 200 0.0 0.0 0.00 0.00 0.00 86 1017.8
20260831052641 77 200 0.0 0.0 0.00 0.00 0.00 86 1017.9
20260831052141 77 200 0.0 0.0 0.00 0.00 0.00 86 1017.8
20260831051641 77 200 0.0 0.0 0.00 0.00 0.00 86 1017.8
20260831051141 78 182 0.0 0.0 0.00 0.00 0.00 85 1017.8
20260831050641 78 190 0.0 0.0 0.00 0.00 0.00 85 1017.8
20260831050141 78 190 0.0 0.0 0.00 0.00 0.00 85 1017.9
20260831045641 78 190 0.0 0.0 0.00 0.00 0.00 85 1017.9
20260831045141 78 191 0.0 0.0 0.00 0.00 0.00 85 1017.8
20260831044641 78 191 1.0 3.0 0.00 0.00 0.00 84 1017.8
20260831044141 78 214 1.0 3.0 0.00 0.00 0.00 84 1017.9
20260831043641 78 210 1.0 3.0 0.00 0.00 0.00 84 1017.9
20260831043141 78 212 1.0 3.0 0.00 0.00 0.00 84 1017.9
20260831042641 78 185 1.0 2.0 0.00 0.00 0.00 84 1017.9
20260831042141 79 184 1.0 2.0 0.00 0.00 0.00 84 1018.0
20260831041641 79 183 0.0 3.0 0.00 0.00 0.00 84 1018.1
20260831041141 79 191 0.0 2.0 0.00 0.00 0.00 84 1018.1
20260831040641 79 191 0.0 1.0 0.00 0.00 0.00 83 1018.0
20260831040141 79 192 1.0 2.0 0.00 0.00 0.00 82 1018.1
20260831035641 80 153 1.0 3.0 0.00 0.00 0.00 82 1017.9
20260831035141 80 146 1.0 2.0 0.00 0.00 0.00 82 1017.9
20260831034641 80 160 1.0 2.0 0.00 0.00 0.00 82 1018.0
20260831034141 80 162 1.0 3.0 0.00 0.00 0.00 81 1017.9
20260831033641 80 168 1.0 3.0 0.00 0.00 0.00 81 1017.9
20260831033141 80 170 1.0 3.0 0.00 0.00 0.00 81 1017.9
20260831032641 80 167 0.0 3.0 0.00 0.00 0.00 81 1017.8
20260831032141 80 162 1.0 2.0 0.00 0.00 0.00 80 1017.7
20260831031641 80 166 1.0 3.0 0.00 0.00 0.00 80 1017.7
20260831031141 81 155 0.0 2.0 0.00 0.00 0.00 80 1017.6
20260831030641 81 145 1.0 2.0 0.00 0.00 0.00 79 1017.7
20260831030141 81 135 1.0 3.0 0.00 0.00 0.00 79 1017.6
20260831025641 81 195 1.0 4.0 0.00 0.00 0.00 79 1017.6
20260831025141 81 178 1.0 4.0 0.00 0.00 0.00 79 1017.4
20260831024641 81 191 0.0 2.0 0.00 0.00 0.00 78 1017.5
20260831024141 82 191 0.0 1.0 0.00 0.00 0.00 78 1017.6
20260831023641 82 189 0.0 0.0 0.00 0.00 0.00 77 1017.5
20260831023141 82 189 0.0 0.0 0.00 0.00 0.00 77 1017.4
20260831022641 83 189 0.0 1.0 0.00 0.00 0.00 76 1017.3
20260831022141 83 189 1.0 2.0 0.00 0.00 0.00 76 1017.3
20260831021641 83 190 1.0 2.0 0.00 0.00 0.00 75 1017.3
20260831021141 83 183 0.0 3.0 0.00 0.00 0.00 75 1017.2
20260831020641 84 166 0.0 1.0 0.00 0.00 0.00 74 1017.1
20260831020141 84 166 0.0 2.0 0.00 0.00 0.00 73 1017.0
20260831015641 84 166 1.0 2.0 0.00 0.00 0.00 73 1016.9
20260831015141 84 164 1.0 3.0 0.00 0.00 0.00 73 1016.9
20260831014641 84 165 1.0 3.0 0.00 0.00 0.00 73 1016.9
20260831014141 84 172 1.0 2.0 0.00 0.00 0.00 73 1016.9
20260831013641 84 158 1.0 3.0 0.00 0.00 0.00 73 1016.9
20260831013141 85 165 1.0 2.0 0.00 0.00 0.00 72 1016.8
20260831012641 85 170 1.0 1.0 0.00 0.00 0.00 72 1016.8
20260831012141 85 167 1.0 3.0 0.00 0.00 0.00 72 1016.8
20260831011641 85 197 0.0 2.0 0.00 0.00 0.00 72 1016.7
20260831011141 85 203 0.0 1.0 0.00 0.00 0.00 71 1016.8
20260831010641 86 203 1.0 2.0 0.00 0.00 0.00 71 1016.8
20260831010141 86 205 1.0 2.0 0.00 0.00 0.00 70 1016.8
20260831005641 86 189 1.0 4.0 0.00 0.00 0.00 70 1016.8
20260831005141 86 181 1.0 2.0 0.00 0.00 0.00 70 1016.7
20260831004641 86 207 2.0 2.0 0.00 0.00 0.00 69 1016.7
20260831004141 87 174 2.0 3.0 0.00 0.00 0.00 69 1016.6
20260831003641 87 208 2.0 5.0 0.00 0.00 0.00 68 1016.7
20260831003141 87 207 2.0 4.0 0.00 0.00 0.00 68 1016.6
20260831002641 88 197 3.0 5.0 0.00 0.00 0.00 67 1016.5
20260831002141 88 219 3.0 6.0 0.00 0.00 0.00 67 1016.5
20260831001641 88 212 3.0 6.0 0.00 0.00 0.00 66 1016.6
20260831001141 88 176 3.0 7.0 0.00 0.00 0.00 66 1016.6
20260831000641 89 179 2.0 7.0 0.00 0.00 0.00 65 1016.8
20260831000141 89 215 3.0 5.0 0.00 0.00 0.00 65 1016.8
20260830235641 89 142 3.0 8.0 0.00 0.00 0.00 65 1016.7
20260830235141 90 217 3.0 5.0 0.00 0.00 0.00 64 1016.7
20260830234641 90 146 4.0 6.0 0.00 0.00 0.00 63 1016.8
20260830234141 90 176 4.0 8.0 0.00 0.00 0.00 63 1016.8
20260830233641 90 159 4.0 9.0 0.00 0.00 0.00 62 1016.8
20260830233141 91 219 4.0 8.0 0.00 0.00 0.00 63 1016.7
20260830232641 91 203 3.0 9.0 0.00 0.00 0.00 62 1016.7
20260830232141 91 198 3.0 6.0 0.00 0.00 0.00 62 1016.6
20260830231641 91 214 4.0 7.0 0.00 0.00 0.00 62 1016.6
20260830231141 91 207 5.0 7.0 0.00 0.00 0.00 61 1016.5
20260830230641 91 212 4.0 6.0 0.00 0.00 0.00 61 1016.6
20260830230141 92 184 4.0 7.0 0.00 0.00 0.00 61 1016.5
20260830225641 92 122 5.0 10.0 0.00 0.00 0.00 61 1016.6
20260830225141 92 235 4.0 11.0 0.00 0.00 0.00 60 1016.5
20260830224641 92 232 4.0 8.0 0.00 0.00 0.00 59 1016.5
20260830224141 93 88 5.0 7.0 0.00 0.00 0.00 58 1016.5
20260830223641 93 238 5.0 11.0 0.00 0.00 0.00 57 1016.5
20260830223141 93 214 4.0 7.0 0.00 0.00 0.00 58 1016.5
20260830222641 93 186 5.0 11.0 0.00 0.00 0.00 58 1016.5
20260830222141 93 182 6.0 9.0 0.00 0.00 0.00 58 1016.5
20260830221641 94 214 5.0 10.0 0.00 0.00 0.00 59 1016.5
20260830221141 94 172 4.0 9.0 0.00 0.00 0.00 57 1016.5
20260830220641 95 146 4.0 7.0 0.00 0.00 0.00 58 1016.6
20260830220141 95 194 4.0 8.0 0.00 0.00 0.00 57 1016.6
20260830215641 95 105 4.0 7.0 0.00 0.00 0.00 56 1016.6
20260830215141 95 177 4.0 10.0 0.00 0.00 0.00 55 1016.6
20260830214641 95 219 5.0 11.0 0.00 0.00 0.00 56 1016.7
20260830214141 95 205 5.0 10.0 0.00 0.00 0.00 56 1016.5
20260830213641 95 198 4.0 9.0 0.00 0.00 0.00 56 1016.6
20260830213141 95 247 4.0 7.0 0.00 0.00 0.00 55 1016.6
20260830212641 94 231 6.0 9.0 0.00 0.00 0.00 57 1016.7
20260830212141 94 205 6.0 11.0 0.00 0.00 0.00 57 1016.7
20260830211641 94 193 5.0 12.0 0.00 0.00 0.00 57 1016.8
20260830211141 94 235 5.0 11.0 0.00 0.00 0.00 57 1016.8
20260830210641 94 207 6.0 11.0 0.00 0.00 0.00 57 1016.9
20260830210141 95 229 5.0 9.0 0.00 0.00 0.00 57 1016.9
20260830205641 94 192 5.0 12.0 0.00 0.00 0.00 58 1016.9
20260830205141 94 207 6.0 12.0 0.00 0.00 0.00 58 1016.9
20260830204641 94 195 6.0 12.0 0.00 0.00 0.00 58 1017.0
20260830204141 95 210 5.0 15.0 0.00 0.00 0.00 57 1017.1
20260830203641 95 245 5.0 8.0 0.00 0.00 0.00 57 1017.2
20260830203141 94 151 5.0 9.0 0.00 0.00 0.00 58 1017.2
20260830202641 93 192 4.0 10.0 0.00 0.00 0.00 61 1017.4
20260830202141 93 205 5.0 11.0 0.00 0.00 0.00 59 1017.4
20260830201641 93 231 4.0 10.0 0.00 0.00 0.00 59 1017.4
20260830201141 93 199 3.0 11.0 0.00 0.00 0.00 59 1017.5
20260830200641 94 205 3.0 4.0 0.00 0.00 0.00 58 1017.6
20260830200141 94 213 4.0 8.0 0.00 0.00 0.00 58 1017.7
20260830195641 95 200 5.0 10.0 0.00 0.00 0.00 57 1017.6
20260830195141 95 210 5.0 10.0 0.00 0.00 0.00 58 1017.7
20260830194641 95 210 4.0 10.0 0.00 0.00 0.00 58 1017.6
20260830194141 94 158 4.0 9.0 0.00 0.00 0.00 58 1017.7
20260830193641 95 127 4.0 9.0 0.00 0.00 0.00 57 1017.7
20260830193141 94 242 4.0 8.0 0.00 0.00 0.00 60 1017.8
20260830192641 93 172 3.0 9.0 0.00 0.00 0.00 60 1017.7
20260830192141 93 46 3.0 7.0 0.00 0.00 0.00 61 1018.0
20260830191641 93 172 3.0 6.0 0.00 0.00 0.00 62 1017.9
20260830191142 93 134 4.0 8.0 0.00 0.00 0.00 61 1018.1
20260830190641 95 203 4.0 8.0 0.00 0.00 0.00 58 1018.2
20260830190142 95 244 4.0 9.0 0.00 0.00 0.00 58 1018.0
20260830185641 94 124 3.0 6.0 0.00 0.00 0.00 60 1018.1
20260830185142 94 50 4.0 6.0 0.00 0.00 0.00 61 1018.1
20260830184642 94 257 4.0 8.0 0.00 0.00 0.00 61 1018.3
20260830184142 94 135 3.0 9.0 0.00 0.00 0.00 62 1018.3
20260830183642 93 249 3.0 7.0 0.00 0.00 0.00 62 1018.3